Meacham, OR

7:07 PM PDT on April 27, 2017 (GMT -0700)
Meacham

Weather History for KMEH - July, 2013

Change the Weather History Date:

Saturday, July 20, 2013

  Actual Average Record
Temperature  
Mean Temperature 63 °F -  
Max Temperature 88 °F 79 °F 90 °F (1997)
Min Temperature 39 °F 39 °F 32 °F (2011)
Degree Days  
Heating Degree Days 2    
Growing Degree Days 13 (Base 50)    
Moisture  
Dew Point 39 °F    
Average Humidity 49    
Maximum Humidity 93    
Minimum Humidity 12    
Precipitation  
Precipitation 0.00 in - - ()
Sea Level Pressure  
Sea Level Pressure 29.97 in    
Wind  
Wind Speed 0 mph (North)    
Max Wind Speed 5 mph    
Max Gust Speed -    
Visibility 10 miles    
Events      
Averages and records for this station are not official NWS values.
T = Trace of Precipitation, MM = Missing Value Source: NWS Daily Summary

Daily Weather History Graph

Daily Weather History Graph

Search for Another Location

Airport or City:

Trip Planner

Search our weather history database for the weather conditions in past years. The results will help you decide how hot, cold, wet, or windy it might be!

Date:

Astronomy

Jul. 20, 2013 Rise Set
Actual Time 5:24 AM PDT 8:34 PM PDT
Civil Twilight 4:48 AM PDT 9:10 PM PDT
Nautical Twilight 4:02 AM PDT 9:56 PM PDT
Astronomical Twilight 3:05 AM PDT 10:52 PM PDT
Moon 6:42 PM PDT (7/20) 3:09 AM PDT (7/20)
Length of Visible Light 16h 21m
Length of Day
15h 10m
Waxing Gibbous, 94% of the Moon is Illuminated
Jul 20
Waxing Gibbous
Jul 22
Full
Jul 29
Last Quarter
Aug 6
New
Aug 14
First Quarter

Hourly Weather History & Observations

Time (PDT) Temp. Dew Point Humidity Pressure Visibility Wind Dir Wind Speed Gust Speed Precip Events Conditions
12:56 AM 46.9 °F 43.0 °F 86% 30.02 in 10.0 mi Calm Calm - N/A   Clear
1:56 AM 45.0 °F 41.0 °F 86% 30.01 in 10.0 mi Calm Calm - N/A   Clear
2:56 AM 42.1 °F 39.0 °F 89% 30.01 in 10.0 mi Calm Calm - N/A   Clear
3:56 AM 41.0 °F 37.9 °F 89% 30.01 in 10.0 mi Calm Calm - N/A   Clear
4:56 AM 39.0 °F 37.0 °F 93% 30.01 in 10.0 mi Calm Calm - N/A   Clear
5:56 AM 39.9 °F 36.0 °F 86% 30.02 in 10.0 mi Calm Calm - N/A   Clear
6:56 AM 46.9 °F 39.0 °F 74% 30.01 in 10.0 mi Calm Calm - N/A   Clear
7:56 AM 59.0 °F 44.1 °F 58% 30.00 in 10.0 mi Calm Calm - N/A   Clear
8:56 AM 73.0 °F 48.0 °F 41% 29.99 in 10.0 mi Calm Calm - N/A   Clear
9:56 AM 78.1 °F 42.1 °F 28% 29.99 in 10.0 mi Calm Calm - N/A   Clear
10:56 AM 81.0 °F 44.1 °F 27% 29.98 in 10.0 mi Calm Calm - N/A   Clear
11:56 AM 84.0 °F 36.0 °F 18% 29.98 in 10.0 mi Calm Calm - N/A   Clear
12:56 PM 84.9 °F 41.0 °F 21% 29.98 in 10.0 mi Variable 4.6 mph - N/A   Clear
1:56 PM 86.0 °F 37.9 °F 18% 29.97 in 10.0 mi Calm Calm - N/A   Clear
2:56 PM 86.0 °F 30.9 °F 14% 29.96 in 10.0 mi Variable 3.5 mph - N/A   Clear
3:56 PM 87.1 °F 28.9 °F 12% 29.95 in 10.0 mi Calm Calm - N/A   Clear
4:56 PM 86.0 °F 30.0 °F 13% 29.94 in 10.0 mi Variable 3.5 mph - N/A   Clear
5:56 PM 84.9 °F 30.9 °F 14% 29.92 in 10.0 mi Calm Calm - N/A   Clear
6:56 PM 82.0 °F 37.0 °F 20% 29.91 in 10.0 mi Variable 4.6 mph - N/A   Clear
7:56 PM 73.9 °F 39.0 °F 28% 29.90 in 10.0 mi Calm Calm - N/A   Clear
8:56 PM 64.0 °F 46.0 °F 52% 29.90 in 10.0 mi Calm Calm - N/A   Clear
9:56 PM 57.0 °F 46.0 °F 67% 29.92 in 10.0 mi Calm Calm - N/A   Clear
10:56 PM 53.1 °F 44.1 °F 71% 29.91 in 10.0 mi Calm Calm - N/A   Clear
11:56 PM 50.0 °F 43.0 °F 77% 29.92 in 10.0 mi Calm Calm - N/A   Clear